Location: Gorze? G�rny
(49.8500°N, 19.5000°E)
Time: 12:29:04
(UTC+00:00)

Cosmos 1707 Rocket - Pass Details

Date: 13 May 2021
Orbit: 605 x 631 km, 82.5° (Epoch: 22 June)

Event Time Altitude Azimuth Distance (km) Brightness Sun altitude
Exits shadow 21:29:09 27° 223° (SW) 1,198 4.7 -19.8°
Maximum altitude 21:31:15 50° 285° (WNW) 799 4.3 -19.9°
Drops below altitude 10° 21:35:35 10° 1° (N) 2,006 7.3 -20.1°
Sets 21:37:54 0° 6° (N) 2,922 8.2 -20.2°
